TimeEDT,TemperatureF,Dew PointF,Humidity,Sea Level PressureIn,VisibilityMPH,Wind Direction,Wind SpeedMPH,Gust SpeedMPH,PrecipitationIn,Events,Conditions,WindDirDegrees,DateUTC
12:54 AM,63.0,61.0,93,30.00,10.0,Calm,Calm,-,N/A,,Mostly Cloudy,0,2013-05-09 04:54:00
1:54 AM,60.1,57.9,93,29.99,8.0,Calm,Calm,-,N/A,,Scattered Clouds,0,2013-05-09 05:54:00
2:27 AM,59.0,57.2,94,29.98,2.5,Calm,Calm,-,N/A,,Clear,0,2013-05-09 06:27:00
2:34 AM,57.2,57.2,100,29.98,3.0,Calm,Calm,-,N/A,,Clear,0,2013-05-09 06:34:00
2:54 AM,57.0,55.9,96,29.98,2.5,Calm,Calm,-,N/A,,Clear,0,2013-05-09 06:54:00
2:57 AM,57.2,57.2,100,29.98,1.5,Calm,Calm,-,N/A,,Clear,0,2013-05-09 06:57:00
3:08 AM,57.2,55.4,94,29.98,2.5,Calm,Calm,-,N/A,,Clear,0,2013-05-09 07:08:00
3:15 AM,55.4,55.4,100,29.98,3.0,Calm,Calm,-,N/A,,Clear,0,2013-05-09 07:15:00
3:22 AM,57.2,55.4,94,29.98,2.0,Calm,Calm,-,N/A,,Clear,0,2013-05-09 07:22:00
3:45 AM,57.2,55.4,94,29.98,4.0,Calm,Calm,-,N/A,,Clear,0,2013-05-09 07:45:00
3:54 AM,55.9,55.9,100,29.98,4.0,Calm,Calm,-,N/A,,Clear,0,2013-05-09 07:54:00
4:38 AM,55.4,55.4,100,29.98,1.8,Calm,Calm,-,N/A,,Clear,0,2013-05-09 08:38:00
4:42 AM,55.4,55.4,100,29.99,1.0,Calm,Calm,-,N/A,,Clear,0,2013-05-09 08:42:00
4:49 AM,55.4,53.6,94,29.99,0.2,Calm,Calm,-,N/A,Fog,Fog,0,2013-05-09 08:49:00
4:54 AM,55.0,54.0,96,29.99,0.2,Calm,Calm,-,N/A,Fog,Fog,0,2013-05-09 08:54:00
5:14 AM,55.4,55.4,100,29.99,1.2,Calm,Calm,-,N/A,,Clear,0,2013-05-09 09:14:00
5:18 AM,55.4,55.4,100,30.00,0.8,Calm,Calm,-,N/A,,Clear,0,2013-05-09 09:18:00
5:54 AM,53.1,52.0,96,30.00,0.8,Calm,Calm,-,N/A,,Clear,0,2013-05-09 09:54:00
5:58 AM,53.6,51.8,94,30.00,1.2,Calm,Calm,-,N/A,,Clear,0,2013-05-09 09:58:00
6:01 AM,53.6,51.8,94,30.00,2.0,Calm,Calm,-,N/A,,Clear,0,2013-05-09 10:01:00
6:09 AM,53.6,53.6,100,30.00,1.5,Calm,Calm,-,N/A,,Clear,0,2013-05-09 10:09:00
6:12 AM,53.6,53.6,100,30.00,0.8,Calm,Calm,-,N/A,,Clear,0,2013-05-09 10:12:00
6:37 AM,53.6,53.6,100,30.02,1.2,Calm,Calm,-,N/A,,Clear,0,2013-05-09 10:37:00
6:41 AM,53.6,53.6,100,30.02,2.0,Calm,Calm,-,0.01,,Clear,0,2013-05-09 10:41:00
6:54 AM,55.0,55.0,100,30.02,2.0,Calm,Calm,-,0.01,,Clear,0,2013-05-09 10:54:00
7:08 AM,57.2,55.4,94,30.03,5.0,NW,3.5,-,N/A,,Clear,320,2013-05-09 11:08:00
7:54 AM,61.0,60.1,97,30.04,6.0,WNW,5.8,-,N/A,,Clear,300,2013-05-09 11:54:00
8:54 AM,68.0,62.1,81,30.06,10.0,NNW,3.5,-,N/A,,Clear,330,2013-05-09 12:54:00
9:54 AM,71.1,60.1,68,30.06,10.0,WNW,5.8,-,N/A,,Clear,300,2013-05-09 13:54:00
10:54 AM,75.0,59.0,57,30.07,10.0,Variable,4.6,-,N/A,,Clear,0,2013-05-09 14:54:00
11:54 AM,77.0,55.9,48,30.07,10.0,NW,5.8,-,N/A,,Clear,320,2013-05-09 15:54:00
1:54 PM,80.1,55.9,43,30.05,10.0,West,6.9,-,N/A,,Clear,280,2013-05-09 17:54:00
2:54 PM,81.0,57.0,44,30.05,10.0,West,10.4,-,N/A,,Clear,270,2013-05-09 18:54:00
3:54 PM,82.0,55.0,39,30.03,10.0,West,8.1,-,N/A,,Partly Cloudy,280,2013-05-09 19:54:00
4:54 PM,82.0,55.0,39,30.02,10.0,West,9.2,-,N/A,,Clear,280,2013-05-09 20:54:00
5:54 PM,80.1,55.9,43,30.02,10.0,West,6.9,-,N/A,,Partly Cloudy,270,2013-05-09 21:54:00
6:54 PM,78.1,57.0,48,30.01,10.0,West,4.6,-,N/A,,Clear,260,2013-05-09 22:54:00
7:54 PM,70.0,63.0,78,30.03,10.0,Calm,Calm,-,N/A,,Clear,0,2013-05-09 23:54:00
8:54 PM,63.0,61.0,93,30.05,10.0,Calm,Calm,-,N/A,,Clear,0,2013-05-10 00:54:00
9:54 PM,60.1,59.0,96,30.07,10.0,Calm,Calm,-,N/A,,Clear,0,2013-05-10 01:54:00
10:54 PM,60.1,59.0,96,30.07,10.0,Calm,Calm,-,N/A,,Clear,0,2013-05-10 02:54:00
11:54 PM,57.9,57.9,100,30.07,9.0,Calm,Calm,-,N/A,,Clear,0,2013-05-10 03:54:00